Regional Weather Roundup
Issued by NWS

Home | Current Version | Previous Version | Text Only | Print | Product List | Glossary On
Versions: 1 2 3 4 5 6 7 8 9 10 11 12 13 14 15 16 17 18 19 20 21 22 23 24 25 26 27 28 29 30 31 32 33 34 35 36 37 38 39 40 41 42 43 44 45 46 47 48 49 50
000
ASUS46 KSTO 301409
RWRCA

NORTHERN AND CENTRAL CA REGIONAL WEATHER ROUNDUP
NATIONAL WEATHER SERVICE SACRAMENTO CA
600 AM PST FRI JAN 30 2015

NOTE: FAIR INDICATES FEW OR NO CLOUDS BELOW 12,000 FEET WITH NO
SIGNIFICANT WEATHER AND/OR OBSTRUCTIONS TO VISIBILITY.

CAZ001-003-301500-
NORTHWEST AREA

CITY           SKY/WX    TMP DP  RH WIND       PRES   REMARKS
CRESCENT CITY  CLOUDY    48  47  96 E5        30.15F
ARCATA         NOT AVBL
SHELTER COVE   NOT AVBL
UKIAH          CLEAR     39  36  89 CALM      30.06S
$$

CAZ006-505>513-301500-
BAY AREA

CITY           SKY/WX    TMP DP  RH WIND       PRES   REMARKS
SANTA ROSA     FOG       38  37  97 CALM      30.02S VSB 1/4
SAN RAFAEL     N/A       47  MM  MM MISG
NAPA           FOG       37  37 100 CALM      30.03S VSB 1/4
CONCORD        CLEAR     44  41  89 CALM      30.03S
OAKLAND CITY   N/A       51  MM  MM MISG
OAKLAND        CLOUDY    52  49  89 SE6       30.03S
SAN FRAN CITY  N/A       51  MM  96 MISG
SAN FRAN ARPT  PTCLDY    51  51 100 CALM      30.02S
LIVERMORE      CLEAR     41  37  86 NE3       30.03R
HAYWARD        CLOUDY    50  49  96 CALM      30.03S
REDWOOD CITY   N/A       MM  MM  MM MISG
MOFFETT ARPT   CLOUDY    49  46  90 CALM      30.04S FOG
SAN JOSE ARPT  CLOUDY    50  49  96 NE3       30.03S FOG
$$
CAZ034-037-514>518-301500-
CENTRAL COAST

CITY           SKY/WX    TMP DP  RH WIND       PRES   REMARKS
WATSONVILLE    CLEAR     46  42  86 CALM      30.03S
SALINAS        CLOUDY    46  42  86 S3        30.02F FOG
MONTEREY       CLOUDY    54  51  90 S3        30.03S
PT PIEDRAS BLS NOT AVBL
SAN LUIS OBISP CLEAR     41  39  93 CALM      29.98S
SANTA MARIA    CLEAR     46  41  82 S3        29.98S
$$
CAZ015-016-301500-
NORTHERN SACRAMENTO VALLEY

CITY           SKY/WX    TMP DP  RH WIND       PRES   REMARKS
REDDING        CLEAR     58  38  47 N10       30.04S
RED BLUFF      CLEAR     52  39  61 NW10      30.03F
OROVILLE       CLEAR     42  40  92 CALM      30.02S
$$
CAZ016>018-301500-
SOUTHERN SACRAMENTO VALLEY

CITY           SKY/WX    TMP DP  RH WIND       PRES   REMARKS
AUBURN         CLEAR     41  37  87 CALM      30.00F
BEALE AFB      CLEAR     40  40 100 CALM      29.99F
LINCOLN        FAIR      36  36 100 CALM      30.00S
MARYSVILLE     CLEAR     40  38  93 CALM      30.01F
SAC INTL ARPT  PTCLDY    40  38  93 CALM      30.01S FOG
MATHER AIRPORT NOT AVBL
DOWNTOWN SAC   N/A       43  MM  MM MISG
SAC EXEC ARPT  CLEAR     42  39  89 CALM      30.01S FOG
VACAVILLE      CLEAR     41  38  89 CALM      30.02S
TRAVIS AFB     CLEAR     39  37  93 W3        30.00S
$$
CAZ019>021-301500-
SAN JOAQUIN VALLEY

CITY           SKY/WX    TMP DP  RH WIND       PRES   REMARKS
STOCKTON       FOG       37  37 100 CALM      30.00S VSB 1/4
MODESTO        FOG       40  39  97 CALM      30.01S VSB 1/4
MERCED         FOG       44  43  96 CALM      30.01S VSB<1/4
LEMOORE        PTCLDY    39  38  96 N3        30.02S
FRESNO         FOG       46  46 100 CALM      30.01F VSB 1/8
HANFORD        FOG       44  43  96 CALM      30.01F VSB<1/4
PORTERVILLE    CLOUDY    48  46  93 CALM      30.00F VSB<1/4
BAKERSFIELD    CLOUDY    52  49  89 W6        30.00S FOG
$$
CAZ011-012-071-301500-
NORTHERN MOUNTAINS

CITY           SKY/WX    TMP DP  RH WIND       PRES   REMARKS
YREKA          FOG       24  23  96 CALM      30.20S VSB 1/4
MOUNT SHASTA   CLEAR     36  31  82 CALM      30.15F
ALTURAS        FOG       25  23  92 CALM      30.19S VSB 1/4
$$
CAZ011-012-071-301500-
SIERRA NEVADA MTNS

CITY           SKY/WX    TMP DP  RH WIND       PRES   REMARKS
BLUE CANYON    CLEAR     43  30  60 VRB6      30.08S
TRUCKEE        NOT AVBL
TAHOE VLY ARPT CLOUDY    32  28  85 CALM      30.11F
MAMMOTH LAKES  CLOUDY    34  30  86 W7        30.10S WCI  28
$$



USA.gov is the U.S. government's official web portal to all federal, state and local government web resources and services.